Terminal Aerodrome Forecast
Issued by NWS

Home | Current Version | Previous Version | Text Only | Print | Product List | Glossary On
Versions: 1 2 3 4 5 6 7 8 9 10 11 12 13
000
FTUS45 KABQ 032342
TAFROW
TAF
KROW 032342Z 0400/0424 16009KT P6SM SCT090 BKN150
     FM040400 VRB05KT P6SM SCT100 BKN150
     FM041600 17010KT P6SM SCT080 BKN150=

USA.gov is the U.S. government's official web portal to all federal, state and local government web resources and services.